Theta_e
353 354 356 358 358 358 359 359 358 357 355 354 352 349 350 350 349 350 350 350 350 349 348 348 347 347 347 347 348 347 348 349 349 349 348 347 346 347 348 348 348 348 348 348 348 347 346 345 343 342 341 340 339 339 339 336 332 332 334 333 331 329 328
352 354 355 356 358 358 358 358 357 357 356 355 352 349 350 348 348 351 351 351 352 350 348 347 347 347 346 347 348 347 347 348 347 348 348 346 345 347 348 348 348 348 348 348 347 347 346 344 343 342 339 339 339 339 338 334 333 334 335 334 334 332 331
351 354 355 356 357 358 358 358 358 357 356 354 353 351 349 347 350 352 352 352 351 350 348 347 347 347 345 347 348 348 348 348 348 348 349 348 348 347 345 345 347 348 347 347 347 346 345 344 343 343 341 339 338 338 336 334 333 334 335 335 334 333 333
353 355 355 357 358 357 358 359 358 358 356 355 352 351 350 349 350 351 351 352 352 350 349 346 348 348 347 348 349 349 349 349 349 349 349 348 347 346 346 346 347 347 347 347 347 345 344 344 342 343 344 341 339 338 336 335 334 334 335 335 333 333 333
354 355 355 356 357 357 358 357 357 357 357 355 351 351 352 351 351 352 351 351 352 351 349 346 347 349 349 349 349 349 349 348 349 349 349 348 346 347 347 347 347 348 348 348 348 346 344 344 343 343 343 341 339 337 335 335 335 335 335 334 334 333 331
353 355 355 356 355 356 358 357 357 356 355 356 353 352 353 352 352 354 351 349 351 351 349 346 345 347 349 349 348 349 348 347 347 348 349 348 347 348 347 346 347 347 347 348 348 347 345 344 343 342 342 340 338 336 335 336 335 335 335 333 333 331 329
353 355 354 354 355 354 356 356 356 355 354 354 354 353 353 352 353 354 352 350 350 351 350 348 346 347 348 348 347 349 349 347 347 348 349 348 347 347 346 346 347 346 346 347 346 345 345 344 342 342 341 339 338 336 336 336 335 335 334 332 332 330 328
354 354 353 354 352 351 353 354 355 355 355 355 354 354 353 352 352 352 353 351 350 350 351 350 348 348 347 346 346 348 348 347 348 347 348 348 348 347 346 346 346 345 346 347 346 345 345 343 342 341 340 339 338 337 336 335 334 333 333 332 331 329 324
354 355 354 352 351 352 353 354 355 354 354 354 354 353 353 352 352 352 352 351 348 347 346 347 346 344 344 345 345 347 347 346 347 346 347 349 348 346 345 346 344 343 345 347 347 345 344 343 342 341 340 338 338 337 336 335 334 332 333 333 329 322 318
353 355 355 354 353 353 352 353 354 354 354 354 352 352 353 354 353 352 351 350 348 347 345 344 344 342 343 344 344 346 347 346 346 345 346 348 348 345 343 345 344 342 344 347 346 345 344 343 341 339 338 338 337 336 335 334 334 333 332 331 324 319 319
355 355 355 355 355 353 351 351 352 351 350 350 350 352 352 352 354 354 352 351 351 349 346 345 344 344 344 344 344 345 346 346 344 344 345 347 348 345 342 344 344 342 345 347 345 344 343 340 339 338 337 337 335 335 334 333 333 333 330 324 319 319 324
354 356 355 355 356 354 350 348 346 346 345 347 351 353 351 350 354 355 353 352 352 350 347 346 348 347 345 345 346 345 346 346 345 346 346 345 346 344 339 340 342 341 344 344 342 343 342 339 338 338 337 336 335 334 334 333 333 329 320 315 316 319 322
354 356 353 353 355 354 350 346 344 344 344 346 349 350 348 348 352 354 352 351 350 350 347 347 348 348 347 349 349 348 347 347 346 346 346 345 344 342 339 340 342 341 341 340 340 342 341 339 339 338 336 335 334 334 333 332 331 324 315 315 318 319 320
353 354 354 355 358 356 352 347 345 344 344 344 345 345 346 346 348 351 352 351 349 349 348 347 348 348 349 350 350 349 346 347 348 346 344 344 344 342 341 341 342 341 340 339 339 339 339 339 338 336 335 335 335 333 331 330 327 322 319 322 322 321 321
352 352 353 355 357 356 351 346 344 342 341 343 344 345 345 346 345 347 350 352 351 349 349 348 348 349 350 350 350 349 346 346 347 346 344 345 344 344 343 341 342 341 340 340 338 336 337 338 338 336 335 335 334 331 329 327 321 315 316 320 320 320 319
350 350 350 351 354 354 349 344 343 342 341 341 343 346 346 346 346 346 348 351 352 351 350 350 350 350 350 350 349 348 347 346 346 345 345 344 345 345 344 342 342 341 341 340 337 336 338 338 338 337 336 335 332 329 327 323 316 312 314 317 316 315 315
349 350 350 352 353 353 349 345 344 344 343 342 341 343 344 344 346 346 346 348 350 351 351 351 352 351 349 348 348 347 347 345 345 345 344 344 344 344 343 344 342 341 342 340 337 338 339 339 339 337 335 333 330 327 324 318 314 315 316 316 313 310 314
349 351 353 354 353 350 347 343 342 343 345 344 342 341 341 342 344 345 346 347 348 350 350 350 351 350 348 348 347 347 348 347 346 345 344 344 344 343 343 344 343 342 342 340 339 339 339 339 339 335 333 331 327 326 324 317 314 316 316 314 310 309 318
352 353 354 353 352 348 345 343 343 344 343 343 344 343 342 342 344 345 346 346 347 348 348 349 350 348 348 348 347 348 348 347 346 345 345 344 344 344 344 344 343 342 342 340 340 339 338 339 337 333 332 328 324 326 326 319 315 317 315 311 308 310 320
353 354 354 354 352 350 347 346 346 346 345 344 343 343 344 345 346 348 348 349 350 348 346 348 348 346 346 348 348 348 348 347 347 347 346 346 344 344 345 344 343 342 341 341 340 338 338 336 334 333 330 324 322 326 324 317 315 316 312 309 308 313 322
354 355 355 353 348 345 345 346 347 347 347 345 342 343 344 346 349 351 351 351 351 349 347 349 348 345 346 347 349 349 348 348 348 348 348 347 344 344 345 344 344 342 341 341 340 338 336 334 332 331 326 321 324 328 324 316 314 314 313 310 309 315 323
353 351 348 347 345 342 343 345 347 348 347 347 346 344 345 347 350 352 352 352 351 350 350 351 349 347 348 348 349 349 349 349 349 348 348 346 345 345 345 345 344 342 340 340 338 337 335 333 332 329 324 322 325 329 325 318 314 315 316 312 310 316 324
348 345 345 347 344 340 339 342 348 349 348 349 349 348 349 350 350 352 352 351 352 352 352 351 350 350 349 349 349 348 348 349 349 347 347 346 346 345 345 345 343 341 340 339 337 335 334 333 330 325 323 323 325 328 327 322 317 318 318 312 309 316 323
346 347 349 348 345 344 343 343 347 349 349 351 352 349 351 353 352 353 353 353 353 352 352 352 351 351 351 350 349 348 347 348 348 347 347 346 345 345 346 344 342 341 341 338 334 332 331 331 326 320 320 323 322 324 328 327 322 320 319 314 309 314 321
348 349 350 349 349 351 347 341 344 349 351 352 352 350 351 352 352 353 354 353 352 351 351 352 351 352 352 350 349 348 347 347 347 348 346 345 345 346 346 344 342 342 337 332 330 329 329 328 325 320 321 323 320 320 325 328 325 322 320 316 311 311 318
350 349 351 352 350 349 347 343 348 355 355 352 352 351 350 352 352 352 352 352 351 351 351 351 351 352 351 349 349 348 346 346 347 346 345 346 346 345 345 344 342 334 324 323 329 330 328 327 325 324 324 323 321 323 325 326 325 324 321 318 313 310 314
351 351 354 352 342 342 350 351 353 357 355 351 352 351 350 351 352 351 351 351 351 351 351 351 351 352 350 349 348 346 344 344 345 345 345 346 345 344 345 342 332 321 314 318 325 324 321 321 322 324 325 323 322 325 325 323 323 324 322 318 314 310 311
353 353 353 347 334 336 350 354 353 355 354 352 351 349 349 351 352 351 351 352 351 350 349 349 350 350 349 348 347 345 342 341 342 344 345 345 345 345 343 333 321 317 317 318 320 319 319 320 322 326 328 325 325 326 325 322 323 324 322 317 312 309 311
352 350 349 348 344 343 348 351 352 354 353 351 349 348 348 349 350 350 352 352 349 348 348 348 349 348 347 348 346 344 342 340 341 343 344 344 346 344 335 324 320 322 323 321 322 323 322 322 324 329 330 330 330 328 325 325 326 324 319 314 310 309 312
348 347 346 348 347 343 342 346 351 353 352 350 349 346 345 347 348 349 352 351 348 347 348 348 348 348 347 347 346 344 342 341 341 342 343 345 345 338 327 322 324 326 325 325 325 325 324 325 327 330 330 328 329 330 327 325 324 321 315 310 308 308 310
345 344 344 343 340 334 336 344 349 350 351 350 349 345 342 342 344 347 351 351 349 348 348 347 347 348 347 347 346 344 342 343 342 342 343 345 341 331 323 324 327 327 327 328 327 327 329 329 329 330 329 326 328 330 328 321 318 316 310 306 308 312 312
344 344 345 342 337 337 343 347 348 348 349 348 348 348 344 341 341 344 347 351 350 347 347 347 347 347 347 347 346 344 342 343 343 342 344 345 338 330 325 327 329 329 330 331 330 330 330 330 329 330 329 328 329 331 327 318 314 314 310 308 314 320 320
343 342 338 334 334 342 348 349 347 347 347 345 346 349 347 344 344 343 344 350 350 347 345 346 347 348 347 346 346 345 344 343 343 343 344 344 341 336 331 329 330 332 332 331 332 331 331 331 331 329 328 328 330 330 327 321 318 315 312 311 314 320 322
341 338 333 331 337 345 348 347 346 346 343 340 342 346 346 344 343 341 343 348 350 348 346 346 346 347 348 346 346 345 345 344 344 344 344 344 343 340 335 332 332 334 334 332 331 331 331 331 330 328 326 326 328 329 328 325 322 315 310 309 311 315 318
343 341 336 335 339 344 344 344 344 343 336 331 335 342 344 342 342 342 343 346 348 348 348 347 346 346 347 347 346 346 346 345 344 344 344 344 343 339 335 333 334 335 336 334 332 330 328 327 326 324 323 324 325 326 327 326 320 311 306 309 313 315 313
341 340 337 335 337 339 340 339 341 342 336 332 336 341 343 344 344 344 344 344 344 345 346 347 346 346 347 347 347 346 346 346 345 344 344 344 341 336 333 334 335 336 336 334 333 330 327 325 322 318 318 321 320 316 317 317 313 307 307 312 316 316 311
336 336 335 334 333 333 335 338 342 344 342 340 341 343 344 344 344 344 343 342 341 342 344 345 346 347 346 346 346 346 345 345 344 344 344 344 341 337 335 336 337 338 336 334 333 331 327 324 320 316 313 314 312 307 308 310 308 307 310 312 315 315 310
330 328 328 328 326 328 335 342 343 343 343 343 343 343 344 344 344 344 344 343 342 342 343 343 345 346 346 345 345 344 343 344 344 344 344 344 343 340 337 338 339 339 337 335 333 331 327 323 321 317 312 309 308 307 308 309 307 308 311 312 313 313 309
Wind_Speed
5 5 5 5 5 5 6 6 6 6 6 6 5 5 4 3 4 4 4 5 5 7 7 8 8 8 8 7 6 5 5 4 4 5 5 5 5 5 4 3 2 2 2 2 3 3 4 5 5 4 5 6 8 11 13 14 13 13 15 16 14 13 13
5 6 6 6 5 5 5 5 5 6 6 6 6 5 4 4 5 4 4 5 5 6 6 7 7 6 7 7 6 6 6 6 6 6 5 5 6 5 3 3 2 2 3 3 3 4 4 5 4 3 4 4 6 10 11 11 11 11 13 13 12 12 11
6 7 7 6 5 5 5 5 5 5 5 6 5 5 4 4 4 4 4 4 4 5 5 5 5 5 6 7 7 6 7 6 5 5 5 4 4 3 3 4 3 2 3 4 4 4 3 3 3 3 2 2 4 7 8 8 9 10 12 12 11 11 10
7 8 7 6 6 5 5 5 5 5 5 4 4 4 4 3 3 3 3 3 4 4 4 4 4 5 6 7 6 6 5 5 4 3 3 3 3 3 3 3 3 2 3 3 3 2 2 2 4 7 6 4 3 4 6 7 8 10 12 12 11 12 10
8 8 7 6 6 5 5 5 4 4 4 3 3 3 3 3 2 2 1 2 3 3 3 3 4 5 5 5 5 5 4 4 3 2 1 2 3 3 2 2 2 3 3 3 2 3 3 2 2 7 8 6 4 4 6 8 8 10 12 11 12 13 10
8 8 7 6 5 4 4 4 3 3 2 2 2 3 3 2 2 1 1 2 2 2 2 2 2 4 4 4 4 3 2 2 2 2 0 1 2 2 2 3 3 3 4 3 2 3 3 1 2 6 6 5 3 3 4 6 7 9 10 11 13 15 12
9 8 7 6 4 3 3 3 2 2 2 2 2 2 3 2 2 1 1 2 2 2 1 1 1 2 4 5 4 2 1 1 1 1 1 1 2 2 2 3 4 4 4 3 3 3 2 2 4 5 5 3 2 2 4 7 8 9 9 11 14 16 12
9 8 7 6 4 3 2 1 1 2 2 2 2 2 2 2 2 2 1 2 2 2 2 1 2 3 3 4 3 1 1 1 1 1 1 1 2 3 3 3 4 5 4 3 3 2 2 2 3 3 3 2 2 2 4 8 9 9 10 13 16 16 13
9 7 6 5 4 2 1 1 1 1 1 2 3 3 3 3 2 2 2 3 3 3 3 3 2 3 3 3 3 1 1 1 1 1 2 2 2 2 3 3 5 6 4 3 2 2 2 2 2 1 2 3 4 4 5 8 9 10 11 14 18 16 13
8 6 5 4 3 1 1 1 1 1 1 3 4 4 4 4 3 3 3 3 4 4 3 3 2 3 3 4 3 1 1 2 2 1 2 2 3 3 3 4 6 7 5 3 2 2 2 1 1 3 4 4 5 5 6 9 10 10 12 14 16 14 11
7 6 5 4 3 2 3 2 2 2 2 3 4 5 6 6 5 4 4 4 5 6 5 4 3 3 4 5 4 3 3 3 3 3 3 3 2 3 4 4 5 6 4 2 1 1 1 2 3 4 4 3 3 4 7 9 9 11 14 14 13 11 9
6 6 5 4 3 2 3 3 2 2 3 3 4 5 8 8 6 6 6 6 6 7 6 6 6 6 6 6 7 6 5 5 4 3 3 3 2 4 4 4 5 5 3 1 1 1 2 3 4 3 3 2 3 4 6 8 9 14 16 12 10 10 9
6 5 5 5 4 3 4 3 2 1 2 4 6 8 8 8 9 9 8 7 7 7 7 8 8 8 7 7 8 8 7 6 6 5 4 5 5 5 5 5 5 5 3 2 2 1 2 3 3 3 2 3 4 5 8 9 11 14 13 11 11 11 10
6 5 5 6 4 3 3 3 2 2 3 5 7 9 9 9 9 10 10 9 8 7 7 8 8 8 8 7 7 8 7 7 7 7 6 6 5 5 5 4 4 4 4 2 2 1 1 2 2 2 2 4 5 6 8 9 8 9 10 10 11 11 11
6 6 6 6 5 3 2 1 1 3 4 5 7 8 9 9 9 9 10 10 9 9 8 7 7 8 8 7 6 7 7 8 9 10 9 8 7 6 4 3 3 4 3 2 2 1 0 1 1 1 2 3 5 6 6 6 7 8 9 10 12 12 12
7 7 7 7 6 3 1 1 2 3 3 4 6 8 9 9 8 8 8 9 10 10 9 8 7 7 8 8 7 8 9 10 11 11 11 10 9 6 4 2 3 3 2 1 2 2 1 1 2 2 2 4 6 6 5 5 7 9 10 11 13 13 13
9 9 8 7 5 2 0 2 3 3 2 2 3 5 7 8 7 7 6 7 8 9 10 9 9 9 9 9 10 10 10 11 12 12 12 11 10 7 5 3 3 3 2 1 2 2 1 2 2 3 3 5 7 6 4 5 7 9 11 13 14 13 12
10 10 9 6 4 1 1 2 3 3 3 2 1 2 4 5 6 5 5 6 6 7 8 9 9 10 10 11 11 11 11 12 14 14 13 12 11 9 7 5 3 3 2 2 3 2 0 1 2 2 2 5 7 4 3 6 8 9 12 13 13 12 10
10 9 8 5 2 0 2 4 5 5 5 4 3 2 2 3 4 4 4 4 4 5 6 7 8 10 10 11 11 11 11 12 13 15 15 14 12 10 9 7 4 2 2 3 3 2 1 0 2 1 2 5 5 4 2 6 8 10 11 12 14 13 11
10 9 6 3 1 1 3 4 5 6 6 5 4 3 2 2 3 3 3 3 2 3 5 5 7 8 8 9 9 9 9 9 10 12 13 13 12 11 10 7 3 2 3 4 4 2 2 1 1 1 4 5 3 4 2 7 8 9 11 13 15 15 11
9 7 5 2 1 2 3 3 4 5 5 5 5 4 3 2 2 2 2 2 2 4 4 3 5 6 6 7 7 7 7 8 9 10 10 11 11 10 8 5 3 3 4 4 4 3 3 3 2 3 5 4 3 3 2 7 8 10 12 15 17 15 12
8 7 5 2 1 3 3 2 3 3 4 5 5 5 4 3 2 1 1 2 2 3 3 2 3 5 5 6 6 6 7 7 6 7 7 8 7 6 5 4 4 4 4 4 4 4 4 4 2 2 3 3 4 2 2 7 10 12 14 17 18 15 11
8 6 4 2 1 2 3 3 3 3 4 4 5 5 4 2 1 1 2 2 2 2 3 3 3 3 3 4 4 5 6 5 4 3 3 4 4 5 5 5 5 4 4 4 5 5 5 4 2 0 2 3 3 2 1 7 12 14 15 18 19 14 10
7 5 4 2 1 2 3 4 3 3 3 4 4 5 3 2 2 1 2 2 2 2 3 3 2 2 2 3 4 4 3 3 2 3 3 4 5 6 6 5 5 5 4 4 5 5 5 4 2 1 3 3 3 3 1 5 12 16 16 18 19 15 10
7 5 3 2 1 2 3 4 4 4 4 4 5 5 4 3 3 2 2 2 3 3 3 3 3 2 2 3 3 2 2 1 2 3 4 5 6 7 7 6 5 4 4 5 5 5 4 3 1 2 3 2 5 7 5 4 9 15 17 17 18 16 12
6 4 3 1 1 2 3 5 5 5 5 5 4 5 5 5 4 4 4 3 3 4 4 4 4 2 3 3 2 1 1 1 3 3 4 5 6 7 8 6 5 4 4 5 6 5 4 3 2 2 2 2 6 7 7 6 9 14 16 17 17 16 13
5 4 2 1 1 2 3 5 5 4 5 5 4 5 5 5 5 5 5 4 4 4 4 4 3 3 3 1 1 2 2 2 5 5 4 5 6 7 7 6 5 5 5 6 7 6 5 5 3 2 1 4 6 6 7 9 10 13 16 17 17 17 14
5 3 2 1 1 2 3 4 5 5 5 5 5 5 6 5 5 7 6 5 4 4 4 4 2 2 1 1 3 4 3 4 6 7 6 6 7 7 6 7 7 7 7 8 8 7 7 6 4 2 1 5 6 6 8 11 11 13 15 16 17 17 14
4 3 2 3 3 4 4 4 6 6 6 5 5 6 7 6 6 6 6 5 5 5 5 5 2 1 1 3 4 4 4 5 7 8 7 6 7 7 8 9 9 8 8 8 8 7 6 6 4 1 1 4 5 5 7 9 9 12 14 16 17 16 14
4 3 3 3 3 4 4 5 6 6 7 6 6 6 7 6 6 6 6 6 7 6 5 4 2 1 2 3 4 4 4 5 6 7 7 6 7 8 10 11 9 8 7 7 6 5 4 4 3 2 2 5 6 5 5 7 9 11 13 15 15 14 14
5 5 4 3 3 4 5 6 6 6 7 7 7 7 7 6 5 6 6 7 7 6 5 4 2 0 1 3 4 4 4 4 5 7 7 6 8 10 12 10 7 6 5 5 5 4 3 2 2 3 4 6 6 5 6 9 11 11 13 15 14 14 15
6 5 4 3 4 6 6 6 7 7 8 8 8 8 8 6 5 5 5 5 5 5 5 4 2 1 1 2 3 4 4 3 5 6 6 6 7 10 11 8 5 4 3 4 2 1 2 2 3 4 5 6 5 4 7 10 10 10 12 14 12 11 14
6 5 4 3 5 6 7 7 7 8 8 8 9 9 8 7 6 4 4 4 4 4 4 4 2 1 1 2 2 3 4 4 4 5 5 5 7 8 8 7 5 2 1 1 1 2 3 4 5 5 5 5 5 4 6 7 6 7 10 11 9 8 10
6 5 4 5 6 6 7 7 7 8 8 9 9 8 7 7 5 3 3 3 3 4 4 3 2 1 2 2 2 3 3 3 3 4 4 5 7 8 8 7 5 3 2 1 1 2 3 4 5 5 5 5 4 4 3 3 3 6 9 9 9 10 10
7 5 5 5 6 6 7 7 7 8 9 10 9 8 7 7 6 4 3 4 4 4 3 1 1 2 1 3 3 3 4 3 3 4 5 6 8 10 10 9 6 5 4 3 0 2 4 5 4 5 5 4 3 2 1 1 2 6 8 8 10 13 14
7 6 5 5 6 6 8 8 8 9 10 10 10 9 8 7 7 6 6 6 6 5 3 2 1 1 1 3 4 5 5 4 3 4 4 6 8 9 9 8 6 4 3 1 2 4 6 7 6 6 5 3 3 2 1 2 4 6 6 8 12 14 16
8 6 5 5 6 7 9 9 9 9 10 10 10 9 9 8 7 7 8 8 7 6 5 3 1 0 0 2 4 5 5 4 3 4 4 6 8 9 9 7 6 4 2 1 3 5 7 8 9 9 7 3 3 3 3 4 4 4 5 9 13 14 16
8 7 6 6 7 8 9 9 9 9 10 10 10 9 9 9 8 7 8 9 9 8 6 4 2 1 0 1 2 5 6 4 3 3 4 5 7 9 10 8 6 4 2 2 3 4 6 8 10 10 9 6 4 4 4 5 4 4 6 11 13 14 16
Wind_Direction
101 98 93 85 76 74 75 71 68 64 59 57 56 62 65 65 80 91 96 103 111 118 123 127 130 130 128 133 136 130 121 119 123 119 110 111 111 104 101 102 102 86 69 49 39 41 48 59 70 59 42 44 34 27 23 23 32 31 26 33 31 25 29
105 102 97 88 82 80 77 72 67 65 62 58 59 69 77 84 95 101 102 109 120 128 132 135 136 135 135 137 133 124 115 114 118 116 107 96 88 89 105 113 95 54 46 38 26 31 31 43 66 67 50 46 29 28 25 23 33 33 31 36 25 19 27
108 102 97 94 91 84 78 75 70 70 69 64 65 71 80 93 101 106 108 116 131 136 136 138 139 143 144 138 134 127 118 115 114 109 102 92 90 95 84 72 71 36 26 30 28 38 31 22 36 32 31 37 26 33 32 29 33 25 27 32 17 10 10
106 103 103 100 94 87 81 77 71 75 79 78 79 83 92 98 98 105 115 128 141 141 141 144 142 153 154 143 140 134 125 124 124 114 108 105 98 87 58 44 42 20 14 18 13 19 28 27 12 4 8 16 25 40 38 30 24 14 19 23 10 7 360
111 106 106 99 92 85 79 77 70 74 89 96 95 100 108 114 113 108 112 134 146 146 146 150 149 156 156 147 146 145 134 131 131 133 117 85 67 57 42 11 5 0 355 3 351 350 23 72 18 0 13 27 33 47 32 13 4 4 10 11 1 2 357
113 109 106 97 89 84 80 83 82 89 111 127 130 128 129 139 136 126 163 151 144 142 141 151 153 151 157 160 156 144 133 132 126 139 179 51 47 30 358 352 359 350 342 352 348 347 18 64 356 2 28 46 38 41 23 1 358 358 0 359 354 356 355
112 111 106 96 90 86 85 87 99 123 145 151 158 156 149 157 141 125 175 164 153 155 145 148 168 165 173 174 167 145 148 180 127 115 147 31 22 4 349 354 355 350 348 346 335 341 355 347 358 22 50 51 25 14 354 1 8 1 355 352 348 353 353
109 108 103 98 91 85 95 110 133 153 170 171 173 172 162 164 152 138 162 172 175 177 165 177 206 201 187 174 172 180 216 192 144 90 57 27 5 359 0 354 351 356 355 341 331 346 16 20 25 46 54 32 32 29 350 358 5 355 350 348 345 348 350
107 106 102 102 101 97 125 155 175 191 205 207 204 193 175 170 171 169 175 185 189 182 165 170 190 192 184 183 191 211 260 245 216 316 9 14 350 345 359 350 349 358 1 355 356 16 49 69 71 47 39 28 28 27 1 355 356 351 349 346 342 346 350
109 107 101 101 101 87 21 0 290 270 241 231 231 220 200 187 184 191 196 191 193 192 178 167 174 179 185 201 213 222 236 225 220 289 335 351 337 332 348 350 348 357 12 23 35 63 61 66 42 16 29 34 24 17 1 353 352 350 347 342 343 350 357
112 106 101 95 77 34 2 346 307 290 264 245 237 228 221 212 195 197 203 192 195 206 202 191 195 204 206 211 221 224 223 227 242 292 319 335 330 314 328 347 349 359 23 34 36 90 35 12 19 24 34 38 17 4 358 358 354 344 341 342 350 0 2
111 102 98 86 70 32 11 354 326 299 259 242 228 224 227 224 209 206 211 202 203 216 217 211 216 225 228 223 224 226 231 242 251 262 288 299 286 287 308 331 343 357 17 19 20 43 0 359 18 32 40 34 20 6 358 357 345 337 340 349 359 3 3
106 101 85 72 64 42 32 28 18 337 237 223 221 222 224 224 219 219 223 219 216 223 225 222 224 231 238 231 228 232 236 239 243 247 262 278 282 284 298 319 338 352 355 350 13 18 353 1 15 26 29 20 14 357 349 351 346 343 351 1 2 1 1
107 97 79 71 68 52 39 34 21 315 251 227 220 219 220 224 225 226 228 227 226 227 230 232 233 235 239 237 234 242 243 230 233 250 256 257 263 266 277 305 332 343 341 341 353 357 28 35 26 31 22 4 0 355 356 2 360 357 3 3 359 359 354
102 90 80 77 76 64 34 342 293 264 252 238 224 217 217 223 229 230 229 228 230 231 233 240 243 240 244 250 248 251 252 237 235 246 247 243 249 256 264 296 333 335 328 332 330 325 66 71 42 41 18 354 355 4 13 11 357 356 2 1 355 352 348
94 84 78 75 75 75 21 285 267 256 253 243 226 220 221 224 228 231 229 228 230 235 241 251 259 257 260 266 258 248 248 244 243 249 250 252 258 265 279 316 335 327 315 323 322 310 354 19 20 14 359 347 352 6 20 6 351 354 358 356 350 348 353
91 83 79 79 82 85 298 289 285 280 282 272 232 224 226 226 228 231 231 232 235 241 250 259 268 271 275 276 267 256 252 250 251 255 256 258 261 264 281 312 321 312 300 308 302 291 328 10 12 1 353 350 354 10 25 358 352 354 352 350 348 353 3
94 88 87 89 93 90 323 315 321 326 329 329 306 246 231 226 230 234 239 246 247 250 255 259 265 271 277 278 273 270 266 260 258 258 256 256 256 258 272 281 278 287 290 277 276 277 330 351 352 0 359 354 4 39 42 354 354 352 349 351 354 5 18
97 97 98 102 106 59 329 332 338 349 356 350 329 293 257 241 242 242 246 256 256 254 254 253 258 267 274 278 280 283 281 272 264 261 260 259 258 260 267 260 236 246 266 255 257 252 174 305 341 17 0 353 22 92 49 348 354 351 352 2 6 16 30
103 105 111 120 135 295 319 329 336 347 353 347 337 329 311 270 254 249 254 263 270 269 262 250 257 270 275 277 282 287 288 283 272 264 261 258 257 257 259 250 221 214 238 241 242 222 169 177 246 327 344 356 50 110 11 348 355 354 1 12 15 26 37
111 118 130 148 211 282 307 328 344 354 351 344 345 350 346 314 272 270 274 272 280 284 276 252 258 275 278 276 280 286 286 282 276 268 262 255 252 252 248 239 214 211 227 233 222 194 167 175 204 326 352 22 87 114 6 357 2 2 8 14 18 32 38
126 141 150 162 247 285 305 325 347 356 350 346 351 353 348 334 309 302 286 276 283 287 283 269 266 273 274 274 283 289 284 277 269 261 251 243 240 239 234 221 205 207 220 219 200 183 173 176 196 339 15 74 107 127 2 3 9 9 9 11 18 31 31
140 147 143 143 257 307 322 330 337 339 340 347 350 347 348 351 339 315 291 288 295 291 291 297 294 283 279 284 293 293 282 269 252 229 212 206 198 198 207 202 192 204 215 198 185 182 175 174 191 336 98 107 105 128 342 1 9 13 10 8 13 24 25
145 141 136 137 49 0 340 333 334 338 347 354 349 346 359 24 17 335 315 309 298 296 308 307 294 284 292 303 306 297 278 256 232 197 175 174 180 183 190 189 186 200 207 191 189 190 179 179 198 130 114 106 71 65 47 350 2 10 10 6 7 15 22
147 144 139 125 45 8 325 322 338 2 11 10 358 353 2 22 25 358 339 329 320 326 332 311 292 274 274 295 310 300 266 235 189 179 170 165 166 167 172 182 188 196 198 189 188 184 173 174 177 115 108 67 29 35 38 359 356 4 7 5 4 8 16
153 151 133 109 13 340 318 325 350 14 15 9 3 358 359 9 12 1 348 344 348 351 336 309 298 287 278 291 308 259 242 169 141 155 164 159 159 162 166 175 185 184 176 173 174 170 163 161 164 158 138 29 13 18 20 7 357 359 2 4 3 3 10
155 150 129 147 288 333 330 327 343 8 11 7 0 353 359 9 8 359 357 0 1 344 317 303 297 287 286 285 173 174 186 156 144 147 159 163 160 161 164 164 163 157 148 147 149 141 130 121 116 139 131 14 10 8 2 357 356 357 360 2 1 360 5
152 148 118 52 3 13 355 338 346 3 10 5 354 346 351 4 8 3 2 2 352 333 329 338 324 283 265 163 163 168 163 157 153 152 158 164 163 165 166 156 145 138 131 127 123 112 101 89 84 108 355 359 7 5 355 350 351 354 358 360 358 356 1
147 135 88 52 28 17 12 5 7 15 16 8 355 343 342 352 4 4 359 354 349 347 355 1 342 265 187 159 162 159 151 154 159 158 156 161 167 170 164 152 140 131 124 115 105 94 80 65 60 89 313 351 352 346 352 350 342 346 355 357 354 353 359
135 112 81 64 36 15 19 24 19 21 24 19 3 344 339 349 359 358 356 353 349 354 5 1 338 276 180 164 155 149 150 159 168 163 155 163 177 172 160 152 141 131 121 105 89 76 56 41 31 353 344 358 345 328 335 340 333 342 354 353 350 355 4
119 100 77 55 30 22 30 31 22 22 26 23 14 359 351 355 357 351 355 354 347 354 10 4 345 308 183 166 153 149 150 167 183 173 160 172 181 168 159 154 146 135 117 91 76 59 30 5 352 347 348 353 346 321 315 328 336 346 352 351 353 359 6
106 91 78 57 36 35 42 38 30 30 29 27 27 20 11 11 6 351 351 352 342 350 12 14 11 60 148 156 154 154 152 176 198 184 169 176 179 169 165 163 157 142 100 83 84 13 3 350 345 353 347 341 339 311 308 326 341 351 352 355 359 358 359
106 98 89 66 48 47 51 47 40 35 27 25 29 28 22 24 23 358 342 343 334 341 5 21 33 78 155 164 166 170 172 187 199 189 177 177 177 178 182 182 182 185 76 90 223 298 342 352 351 355 347 334 322 303 310 332 354 1 353 352 359 4 3
106 100 84 62 54 55 56 49 40 29 20 19 23 25 25 29 26 359 334 343 345 348 358 14 42 76 164 183 181 189 195 193 189 188 180 174 178 188 195 196 194 202 231 240 253 318 342 352 352 348 347 340 314 304 328 352 359 349 344 346 3 20 22
106 97 78 62 56 56 54 49 38 25 21 23 24 25 29 31 23 9 6 10 4 2 4 8 37 65 160 189 193 202 203 196 202 203 184 181 194 199 197 198 196 190 206 229 317 13 359 1 352 338 344 341 306 300 54 147 299 324 337 355 15 23 23
109 99 81 65 55 49 47 47 41 30 25 26 26 26 29 32 24 17 17 13 2 1 7 17 39 61 169 189 197 207 201 188 209 222 191 186 206 207 197 199 205 199 211 258 16 11 2 2 352 347 356 334 281 276 199 239 299 321 339 10 21 20 19
109 100 87 69 54 48 48 48 44 36 30 28 28 27 28 32 29 23 19 15 5 358 358 0 21 56 211 196 196 205 200 180 195 225 207 193 203 205 202 208 215 214 231 330 1 359 2 2 355 356 3 342 296 307 303 299 321 335 359 23 24 18 15
109 99 87 70 56 51 51 50 46 41 38 36 34 30 27 28 29 27 23 19 14 7 1 355 357 8 232 233 213 210 205 192 190 212 210 200 200 202 205 214 219 222 241 283 317 342 359 2 359 360 2 352 327 319 318 319 332 357 23 29 24 16 13